Location: Tucson
(32.2217°N, 110.9265°W)
Time: 01:09:41
(UTC-07:00)

Tiros 1 - Pass Details

Date: 03 November 2021
Orbit: 630 x 663 km, 48.4° (Epoch: 07 December)

Event Time Altitude Azimuth Distance (km) Brightness Sun altitude
Rises 14:30:24 0° 290° (WNW) 2,959 10.8 31.4°
Reaches altitude 10° 14:33:32 10° 269° (W) 2,038 10.4 30.9°
Maximum altitude 14:36:22 16° 232° (SW) 1,669 11.1 30.5°
Drops below altitude 10° 14:39:10 10° 194° (SSW) 2,018 10.8 30.1°
Sets 14:42:16 0° 173° (S) 2,915 11.0 29.7°
